Simultaneous Nadir Overpasses (SNOs) Predictions

Prediction of SNOs near equator between AQUA and NPP Satellite Orbit:

Table of predicted SNOs near equator for the next 14.0 days since TLE Epoch: 4/3/2021
Index Date (AQUA) Time (AQUA) AQUA Lat,Lon Date (NPP) Time (NPP) NPP Lat,Lon Distance(km) Time Diff (sec)
1 04/04/2021 00:15:58 30.00,-164.86 04/04/2021 00:05:58 30.55,-165.51 88.15 600
2 04/04/2021 00:57:51 -2.92, 9.00 04/04/2021 00:48:46 -2.83, 8.53 53.26 545
3 04/04/2021 01:46:06 -1.68, 177.60 04/04/2021 01:38:16 -1.83, 176.87 83.00 470
4 04/06/2021 16:25:47 5.96, -43.43 04/06/2021 16:15:51 5.91, -43.72 32.63 596
5 04/06/2021 17:13:55 -1.49, 125.18 04/06/2021 17:05:14 -1.36, 124.64 62.77 521
6 04/06/2021 18:02:09 -3.17, -66.21 04/06/2021 17:54:44 -3.31, -67.03 92.40 445
7 04/09/2021 08:41:51 4.48, 72.77 04/09/2021 08:32:19 4.38, 72.40 42.18 572
8 04/09/2021 09:29:58 0.04,-118.61 04/09/2021 09:21:42 0.17,-119.25 72.19 496
9 04/12/2021 00:15:51 -29.96, 15.17 04/12/2021 00:05:51 -30.59, 14.51 94.95 600
10 04/12/2021 00:57:55 3.02,-171.04 04/12/2021 00:48:48 2.91,-171.49 51.68 547
11 04/12/2021 01:46:01 1.57, -2.40 04/12/2021 01:38:10 1.70, -3.13 81.66 471
12 04/14/2021 16:25:42 -6.04, 136.58 04/14/2021 16:15:45 -5.99, 136.30 31.33 597
13 04/14/2021 17:13:58 1.50, -54.83 04/14/2021 17:05:16 1.38, -55.37 61.22 522
14 04/14/2021 18:02:05 3.03, 113.79 04/14/2021 17:54:38 3.23, 112.99 91.08 447
